When you browse on this site, cookies collect data to enhance your experience and personalize the content and advertising you see.
Visit our Privacy Policy to learn more. By continuing to use the site, you agree to this use of cookies and data.
  • In Österreich
  • Länderverzeichnis
  • Für 7 Tage
  • Wassertemperatur
  • Satellitenkarten
  • Wetterkarte
  • News
  • Widgets
  • user-avatar
    Anmelden

    Stündliche Wetter Mansa

    Heute, 19 Januar, Samstag

    Zeit Temperatur Niederschläge Wind Luftdruck Luftfeuchtigkeit
    00:00 +20°C° 0.1 mm 1 m/S 659 mmHg 96%
    01:00 +20°C° 0.1 mm 1 m/S 659 mmHg 96%
    02:00 +20°C° 0 mm 1 m/S 659 mmHg 97%
    03:00 +20°C° 0.2 mm 1 m/S 659 mmHg 97%
    04:00 +20°C° 0.2 mm 1 m/S 659 mmHg 97%
    05:00 +20°C° 0.2 mm 1 m/S 659 mmHg 98%
    06:00 +20°C° 0.1 mm 1 m/S 659 mmHg 96%
    07:00 +21°C° 0.1 mm 1 m/S 659 mmHg 95%
    08:00 +21°C° 0 mm 2 m/S 660 mmHg 93%
    09:00 +23°C° 0.6 mm 2 m/S 660 mmHg 89%
    10:00 +24°C° 0.6 mm 3 m/S 660 mmHg 86%
    11:00 +25°C° 0.6 mm 3 m/S 660 mmHg 83%
    12:00 +25°C° 0.9 mm 3 m/S 659 mmHg 84%
    13:00 +25°C° 0.9 mm 3 m/S 659 mmHg 85%
    14:00 +24°C° 0 mm 3 m/S 659 mmHg 85%
    15:00 +24°C° 0.9 mm 2 m/S 659 mmHg 89%
    16:00 +23°C° 0.9 mm 2 m/S 658 mmHg 92%
    17:00 +22°C° 0.9 mm 1 m/S 658 mmHg 95%
    18:00 +22°C° 1.8 mm 1 m/S 659 mmHg 96%
    19:00 +21°C° 1.8 mm 1 m/S 659 mmHg 96%
    20:00 +21°C° 1.8 mm 1 m/S 659 mmHg 97%
    21:00 +21°C° 2.7 mm 1 m/S 660 mmHg 97%
    22:00 +20°C° 2.7 mm 1 m/S 660 mmHg 97%
    23:00 +19°C° 2.7 mm 2 m/S 660 mmHg 97%

    Morgen, 20 Januar, Sonntag

    Zeit Temperatur Niederschläge Wind Luftdruck Luftfeuchtigkeit
    00:00 +19°C° 2.7 mm 2 m/S 660 mmHg 97%
    01:00 +19°C° 2.7 mm 2 m/S 660 mmHg 97%
    02:00 +20°C° 2.7 mm 1 m/S 659 mmHg 97%
    03:00 +20°C° 1 mm 1 m/S 659 mmHg 97%
    04:00 +20°C° 1 mm 1 m/S 659 mmHg 97%
    05:00 +20°C° 1 mm 1 m/S 659 mmHg 97%
    06:00 +20°C° 1.5 mm 1 m/S 660 mmHg 97%
    07:00 +19°C° 1.5 mm 2 m/S 660 mmHg 97%
    08:00 +19°C° 1.5 mm 2 m/S 660 mmHg 97%
    09:00 +19°C° 1.7 mm 2 m/S 660 mmHg 97%
    10:00 +19°C° 1.7 mm 2 m/S 661 mmHg 97%
    11:00 +19°C° 1.7 mm 2 m/S 661 mmHg 97%
    12:00 +20°C° 0.4 mm 3 m/S 661 mmHg 93%
    13:00 +21°C° 0.4 mm 3 m/S 660 mmHg 89%
    14:00 +22°C° 0.4 mm 4 m/S 660 mmHg 85%
    15:00 +21°C° 0.3 mm 4 m/S 660 mmHg 86%
    16:00 +21°C° 0.3 mm 3 m/S 659 mmHg 88%
    17:00 +21°C° 0.3 mm 3 m/S 659 mmHg 89%
    18:00 +20°C° 0 mm 2 m/S 659 mmHg 92%
    19:00 +19°C° 0 mm 2 m/S 659 mmHg 94%
    20:00 +19°C° 0 mm 1 m/S 660 mmHg 97%
    21:00 +19°C° 0 mm 1 m/S 660 mmHg 96%
    22:00 +19°C° 0 mm 1 m/S 660 mmHg 96%
    23:00 +19°C° 0 mm 1 m/S 661 mmHg 96%

    übermorgen, 21 Januar, Montag

    Zeit Temperatur Niederschläge Wind Luftdruck Luftfeuchtigkeit
    00:00 +19°C° 0.1 mm 1 m/S 660 mmHg 96%
    01:00 +19°C° 0.1 mm 1 m/S 660 mmHg 96%
    02:00 +19°C° 0.1 mm 1 m/S 660 mmHg 96%
    03:00 +19°C° 0.3 mm 1 m/S 660 mmHg 96%
    04:00 +19°C° 0.3 mm 1 m/S 660 mmHg 97%
    05:00 +19°C° 0.3 mm 1 m/S 660 mmHg 97%
    06:00 +19°C° 0.3 mm 1 m/S 660 mmHg 97%
    07:00 +19°C° 0.3 mm 1 m/S 660 mmHg 97%
    08:00 +19°C° 0.3 mm 1 m/S 661 mmHg 97%
    09:00 +19°C° 0.5 mm 1 m/S 661 mmHg 97%
    10:00 +20°C° 0.5 mm 1 m/S 661 mmHg 96%
    11:00 +20°C° 0.5 mm 1 m/S 660 mmHg 96%
    12:00 +22°C° 0.7 mm 1 m/S 660 mmHg 93%
    13:00 +23°C° 0.7 mm 1 m/S 660 mmHg 91%
    14:00 +24°C° 0.7 mm 1 m/S 659 mmHg 88%
    15:00 +24°C° 1.2 mm 1 m/S 659 mmHg 90%
    16:00 +23°C° 1.2 mm 1 m/S 658 mmHg 91%
    17:00 +23°C° 1.2 mm 1 m/S 658 mmHg 92%
    18:00 +20°C° 0.8 mm 0 m/S 658 mmHg 93%
    19:00 +19°C° 0.8 mm 0 m/S 658 mmHg 93%
    20:00 +18°C° 0.8 mm 0 m/S 659 mmHg 94%
    21:00 +18°C° 0.4 mm 0 m/S 659 mmHg 94%
    22:00 +18°C° 0.4 mm 0 m/S 660 mmHg 95%
    23:00 +18°C° 0.4 mm 0 m/S 660 mmHg 95%

    22 Januar, Dienstag

    Zeit Temperatur Niederschläge Wind Luftdruck Luftfeuchtigkeit
    00:00 +18°C° 0.5 mm 0 m/S 660 mmHg 96%
    01:00 +20°C° 0.5 mm 1 m/S 659 mmHg 97%
    02:00 +19°C° 0.5 mm 1 m/S 659 mmHg 98%
    03:00 +19°C° 0.1 mm 1 m/S 658 mmHg 98%
    04:00 +19°C° 0.1 mm 1 m/S 658 mmHg 98%
    05:00 +19°C° 0.1 mm 1 m/S 658 mmHg 98%
    06:00 +19°C° 0 mm 1 m/S 659 mmHg 96%
    07:00 +20°C° 0 mm 1 m/S 659 mmHg 94%
    08:00 +20°C° 0 mm 2 m/S 660 mmHg 92%
    09:00 +21°C° 0.5 mm 2 m/S 660 mmHg 89%
    10:00 +24°C° 0.5 mm 3 m/S 660 mmHg 86%
    11:00 +25°C° 0.5 mm 4 m/S 661 mmHg 83%
    12:00 +25°C° 0.7 mm 4 m/S 660 mmHg 80%
    13:00 +26°C° 0.7 mm 4 m/S 659 mmHg 77%
    14:00 +26°C° 0.7 mm 4 m/S 658 mmHg 74%
    15:00 +26°C° 0.1 mm 4 m/S 658 mmHg 74%
    16:00 +26°C° 0.1 mm 3 m/S 658 mmHg 75%
    17:00 +26°C° 0.1 mm 2 m/S 657 mmHg 75%
    18:00 +24°C° 0.1 mm 2 m/S 657 mmHg 82%
    19:00 +22°C° 0.1 mm 1 m/S 657 mmHg 89%
    20:00 +21°C° 0.1 mm 1 m/S 658 mmHg 95%
    21:00 +21°C° 0.2 mm 1 m/S 658 mmHg 95%
    22:00 +21°C° 0.2 mm 1 m/S 658 mmHg 94%
    23:00 +19°C° 0.2 mm 0 m/S 659 mmHg 93%

    23 Januar, Mittwoch

    Zeit Temperatur Niederschläge Wind Luftdruck Luftfeuchtigkeit
    00:00 +18°C° 0 mm 0 m/S 658 mmHg 94%
    01:00 +20°C° 0 mm 1 m/S 658 mmHg 95%
    02:00 +20°C° 0 mm 1 m/S 657 mmHg 96%
    03:00 +20°C° 0.2 mm 1 m/S 657 mmHg 96%
    04:00 +19°C° 0.2 mm 1 m/S 657 mmHg 96%
    05:00 +19°C° 0.2 mm 1 m/S 657 mmHg 97%
    06:00 +20°C° 0 mm 1 m/S 658 mmHg 94%
    07:00 +20°C° 0 mm 2 m/S 658 mmHg 91%
    08:00 +21°C° 0 mm 2 m/S 659 mmHg 88%
    09:00 +24°C° 0.1 mm 3 m/S 659 mmHg 82%
    10:00 +25°C° 0.1 mm 3 m/S 659 mmHg 76%
    11:00 +27°C° 0.1 mm 4 m/S 659 mmHg 69%
    12:00 +27°C° 0.4 mm 4 m/S 659 mmHg 68%
    13:00 +28°C° 0.4 mm 4 m/S 658 mmHg 68%
    14:00 +28°C° 0.4 mm 4 m/S 657 mmHg 67%
    15:00 +27°C° 1.1 mm 3 m/S 657 mmHg 73%
    16:00 +27°C° 1.1 mm 2 m/S 657 mmHg 80%
    17:00 +26°C° 1.1 mm 2 m/S 656 mmHg 86%
    18:00 +24°C° 0.9 mm 2 m/S 657 mmHg 89%
    19:00 +23°C° 0.9 mm 2 m/S 657 mmHg 91%
    20:00 +21°C° 0.9 mm 2 m/S 657 mmHg 93%
    21:00 +21°C° 0.2 mm 1 m/S 658 mmHg 94%
    22:00 +21°C° 0.2 mm 1 m/S 658 mmHg 94%
    23:00 +21°C° 0.2 mm 1 m/S 658 mmHg 95%

    24 Januar, Donnerstag

    Zeit Temperatur Niederschläge Wind Luftdruck Luftfeuchtigkeit
    00:00 +21°C° 0.5 mm 1 m/S 658 mmHg 95%
    01:00 +19°C° 0.5 mm 2 m/S 658 mmHg 96%
    02:00 +19°C° 0.5 mm 2 m/S 657 mmHg 97%
    03:00 +19°C° 0.4 mm 2 m/S 657 mmHg 97%
    04:00 +19°C° 0.4 mm 2 m/S 657 mmHg 97%
    05:00 +20°C° 0.4 mm 1 m/S 657 mmHg 98%
    06:00 +19°C° 0.2 mm 2 m/S 658 mmHg 97%
    07:00 +19°C° 0.2 mm 2 m/S 658 mmHg 96%
    08:00 +20°C° 0.2 mm 2 m/S 659 mmHg 95%
    09:00 +21°C° 0 mm 3 m/S 659 mmHg 88%
    10:00 +24°C° 0 mm 3 m/S 659 mmHg 80%
    11:00 +25°C° 0 mm 4 m/S 660 mmHg 72%
    12:00 +26°C° 0 mm 4 m/S 659 mmHg 69%
    13:00 +27°C° 0 mm 4 m/S 659 mmHg 65%
    14:00 +28°C° 0 mm 4 m/S 658 mmHg 62%
    15:00 +27°C° 0 mm 4 m/S 658 mmHg 67%
    16:00 +26°C° 0 mm 3 m/S 657 mmHg 71%
    17:00 +25°C° 0 mm 2 m/S 657 mmHg 75%
    18:00 +24°C° 0 mm 2 m/S 657 mmHg 78%
    19:00 +23°C° 0 mm 2 m/S 658 mmHg 81%
    20:00 +22°C° 0 mm 1 m/S 658 mmHg 84%
    21:00 +21°C° 0.3 mm 1 m/S 659 mmHg 86%
    22:00 +21°C° 0.3 mm 1 m/S 659 mmHg 88%
    23:00 +21°C° 0.3 mm 1 m/S 659 mmHg 91%
    Mehr zeigen